Date String (YYYY-MM-DD hh:mm:ss) UTC,Instrument flags,Ambient pressure (hPa),Sample flow (lpm),Bypass flow (lpm),Sample temperature (°C),Ambient temperature (°C),ASC tube jacket temperature (°C),LED temperature (°C),Box temperature (°C),Sample RH (%),Span deviation,Mass concentration (μg/m³),Mass concentration (μg/m³),Mass concentration (μg/m³)
DateTimeUTC,F1_M11,P_M11,Q1_M11,Q2_M11,T1_M11,T2_M11,T3_M11,T4_M11,T5_M11,U1_M11,ZSPAN_M11,X0_M11,X2_M11,X1_M11
2022-05-21 21:00:00,,0831.2,5.00,0.00,23.3,22.4,00.0,32.4,25.1,20.6,0000.0,0000.23,0000.04,0000.01
2022-05-21 21:01:00,,0831.2,5.00,0.00,23.3,22.5,00.0,32.4,25.1,21.1,0000.0,0001.16,0000.05,0000.01
2022-05-21 21:02:00,,0831.1,5.00,0.00,23.3,22.5,00.0,32.4,25.1,21.7,0000.0,0001.16,0000.05,0000.01
2022-05-21 21:03:00,,0831.1,5.00,0.00,23.4,22.5,00.0,32.4,25.2,23.1,0000.0,0001.16,0000.05,0000.01
2022-05-21 21:04:00,,0831.2,5.00,0.00,23.4,22.5,00.0,32.4,25.2,20.5,0000.0,0001.16,0000.05,0000.01
2022-05-21 21:05:00,,0831.1,5.01,0.00,23.4,22.6,00.0,32.4,25.2,21.6,0000.0,0001.15,0000.05,0000.01
2022-05-21 21:06:00,,0831.2,4.99,0.00,23.4,22.6,00.0,32.4,25.2,22.2,0000.0,0002.20,0000.07,0000.01
2022-05-21 21:07:00,,0831.2,5.00,0.00,23.4,22.6,00.0,32.4,25.2,22.1,0000.0,0002.43,0000.08,0000.01
2022-05-21 21:08:00,,0831.2,5.00,0.00,23.4,22.6,00.0,32.4,25.2,22.6,0000.0,0002.45,0000.09,0000.01
2022-05-21 21:09:00,,0831.2,4.99,0.00,23.4,22.6,00.0,32.4,25.3,20.7,0000.0,0002.51,0000.12,0000.01
2022-05-21 21:10:00,,0831.1,5.01,0.00,23.4,22.6,00.0,32.4,25.3,21.1,0000.0,0002.50,0000.12,0000.01
2022-05-21 21:11:00,,0831.1,4.99,0.00,23.4,22.6,00.0,32.4,25.3,20.1,0000.0,0002.22,0000.09,0000.01
2022-05-21 21:12:00,,0831.2,5.00,0.00,23.4,22.6,00.0,32.4,25.3,20.8,0000.0,0001.43,0000.10,0000.01
2022-05-21 21:13:00,,0831.1,5.00,0.00,23.5,22.6,00.0,32.4,25.3,22.1,0000.0,0001.47,0000.12,0000.01
2022-05-21 21:14:00,,0831.2,4.99,0.00,23.5,22.7,00.0,32.4,25.3,21.5,0000.0,0001.48,0000.12,0000.01
2022-05-21 21:15:00,,0831.2,5.01,0.00,23.5,22.7,00.0,32.4,25.3,21.5,0000.0,0001.48,0000.12,0000.01
2022-05-21 21:16:00,,0831.2,4.98,0.00,23.5,22.7,00.0,32.4,25.3,21.7,0000.0,0001.51,0000.13,0000.01
2022-05-21 21:17:00,,0831.2,5.00,0.00,23.5,22.7,00.0,32.4,25.3,20.6,0000.0,0000.59,0000.11,0000.01
2022-05-21 21:18:00,,0831.1,5.00,0.00,23.5,22.7,00.0,32.5,25.3,19.9,0000.0,0000.27,0000.11,0000.01
2022-05-21 21:19:00,,0831.1,5.01,0.00,23.5,22.7,00.0,32.5,25.4,21.5,0000.0,0000.36,0000.12,0000.01
2022-05-21 21:20:00,,0831.1,4.99,0.00,23.5,22.7,00.0,32.5,25.4,22.5,0000.0,0000.28,0000.09,0000.00
2022-05-21 21:21:00,,0831.1,5.01,0.00,23.5,22.7,00.0,32.5,25.4,21.1,0000.0,0000.31,0000.10,0000.00
2022-05-21 21:22:00,,0831.1,4.99,0.00,23.5,22.7,00.0,32.5,25.4,21.3,0000.0,0000.32,0000.10,0000.01
2022-05-21 21:23:00,,0831.1,4.99,0.00,23.5,22.7,00.0,32.5,25.3,20.7,0000.0,0000.31,0000.10,0000.01
2022-05-21 21:24:00,,0831.2,5.00,0.00,23.5,22.7,00.0,32.5,25.3,20.9,0000.0,0000.32,0000.11,0000.01
2022-05-21 21:25:00,,0831.1,5.01,0.00,23.5,22.7,00.0,32.5,25.3,22.3,0000.0,0000.31,0000.11,0000.01
2022-05-21 21:26:00,,0831.2,5.00,0.00,23.5,22.7,00.0,32.5,25.3,21.8,0000.0,0000.42,0000.12,0000.01
2022-05-21 21:27:00,,0831.2,4.99,0.00,23.5,22.7,00.0,32.5,25.3,22.4,0000.0,0000.42,0000.11,0000.01
2022-05-21 21:28:00,,0831.2,5.01,0.00,23.5,22.7,00.0,32.5,25.3,20.6,0000.0,0001.24,0000.11,0000.01
2022-05-21 21:29:00,,0831.2,4.99,0.00,23.5,22.7,00.0,32.5,25.3,19.8,0000.0,0001.48,0000.11,0000.01
2022-05-21 21:30:00,,0831.2,5.01,0.00,23.5,22.7,00.0,32.5,25.4,19.2,0000.0,0001.46,0000.12,0000.01
2022-05-21 21:31:00,,0831.1,5.00,0.00,23.5,22.7,00.0,32.5,25.4,20.5,0000.0,0001.48,0000.13,0000.02
2022-05-21 21:32:00,,0831.2,4.99,0.00,23.5,22.7,00.0,32.5,25.4,22.0,0000.0,0001.43,0000.11,0000.01
2022-05-21 21:33:00,,0831.2,5.00,0.00,23.6,22.7,00.0,32.5,25.4,22.6,0000.0,0001.64,0000.12,0000.01
2022-05-21 21:34:00,,0831.2,5.00,0.00,23.5,22.7,00.0,32.5,25.4,20.8,0000.0,0001.87,0000.12,0000.01
2022-05-21 21:35:00,,0831.1,5.00,0.00,23.6,22.7,00.0,32.5,25.4,21.0,0000.0,0001.86,0000.12,0000.01
2022-05-21 21:36:00,,0831.0,5.00,0.00,23.6,22.7,00.0,32.5,25.4,19.6,0000.0,0001.85,0000.11,0000.01
2022-05-21 21:37:00,,0831.2,5.00,0.00,23.6,22.7,00.0,32.5,25.4,20.6,0000.0,0001.73,0000.10,0000.01
2022-05-21 21:38:00,,0831.2,5.00,0.00,23.6,22.7,00.0,32.5,25.4,22.0,0000.0,0001.71,0000.10,0000.01
2022-05-21 21:39:00,,0831.2,5.01,0.00,23.6,22.7,00.0,32.5,25.4,22.1,0000.0,0000.79,0000.10,0000.01
2022-05-21 21:40:00,,0831.1,4.99,0.00,23.6,22.7,00.0,32.5,25.4,20.7,0000.0,0000.64,0000.09,0000.01
2022-05-21 21:41:00,,0831.0,5.02,0.00,23.6,22.8,00.0,32.5,25.4,21.9,0000.0,0000.56,0000.06,0000.01
2022-05-21 21:42:00,,0831.1,4.99,0.00,23.6,22.8,00.0,32.5,25.4,22.6,0000.0,0000.56,0000.07,0000.01
2022-05-21 21:43:00,,0831.1,5.01,0.00,23.6,22.8,00.0,32.5,25.4,22.6,0000.0,0000.56,0000.07,0000.01
2022-05-21 21:44:00,,0831.0,4.99,0.00,23.6,22.8,00.0,32.5,25.4,21.4,0000.0,0000.29,0000.06,0000.01
2022-05-21 21:45:00,,0831.0,5.00,0.00,23.6,22.8,00.0,32.5,25.4,21.4,0000.0,0000.09,0000.04,0000.01
2022-05-21 21:46:00,,0831.0,5.00,0.00,23.6,22.8,00.0,32.5,25.4,21.2,0000.0,0000.07,0000.03,0000.01
2022-05-21 21:47:00,,0831.0,5.00,0.00,23.6,22.8,00.0,32.5,25.4,23.1,0000.0,0000.07,0000.03,0000.01
2022-05-21 21:48:00,,0831.0,4.99,0.00,23.6,22.8,00.0,32.5,25.4,22.8,0000.0,0000.09,0000.04,0000.01
2022-05-21 21:49:00,,0831.0,5.01,0.00,23.6,22.8,00.0,32.5,25.4,22.2,0000.0,0000.10,0000.05,0000.01
2022-05-21 21:50:00,,0831.0,5.00,0.00,23.6,22.8,00.0,32.5,25.4,22.7,0000.0,0000.08,0000.04,0000.01
2022-05-21 21:51:00,,0831.0,5.00,0.00,23.6,22.8,00.0,32.5,25.4,20.8,0000.0,0000.06,0000.04,0000.01
2022-05-21 21:52:00,,0831.0,5.01,0.00,23.6,22.8,00.0,32.5,25.4,21.2,0000.0,0000.06,0000.04,0000.01
2022-05-21 21:53:00,,0831.0,5.00,0.00,23.6,22.8,00.0,32.5,25.4,22.1,0000.0,0000.05,0000.03,0000.00
2022-05-21 21:54:00,,0831.0,4.99,0.00,23.6,22.7,00.0,32.5,25.4,21.3,0000.0,0000.58,0000.03,0000.01
2022-05-21 21:55:00,,0831.0,5.00,0.00,23.6,22.7,00.0,32.5,25.5,21.7,0000.0,0001.82,0000.04,0000.00
2022-05-21 21:56:00,,0831.0,4.99,0.00,23.6,22.7,00.0,32.6,25.5,21.9,0000.0,0001.82,0000.04,0000.00
2022-05-21 21:57:00,,0831.0,5.01,0.00,23.6,22.8,00.0,32.6,25.4,21.8,0000.0,0001.85,0000.05,0000.00
2022-05-21 21:58:00,,0831.0,4.99,0.00,23.6,22.8,00.0,32.6,25.4,23.1,0000.0,0001.86,0000.05,0000.01
2022-05-21 21:59:00,,0831.0,5.00,0.00,23.6,22.8,00.0,32.6,25.4,22.7,0000.0,0001.95,0000.04,0000.00
